User: anonymous   Login
Location: Wawayanda State Park
(41.1833°N, 74.4333°W)
Time: 15:22:40
(UTC-04:00)
Language:

Landsat 7 - Orbit

View from above orbital plane
View from above orbital plane
View from above satellite
View from above satellite

Ground track
Ground track

The orbit data is extracted from the following two-line orbital elements,

1 25682U 99020A   17263.78244647 -.00001541 +00000-0 -33205-3 0  9993
2 25682 098.2029 333.5767 0001155 072.2296 287.8987 14.57106140980510
Epoch (UTC): 20 September 2017 18:46:43
Eccentricity: 0.0001155
inclination: 98.2029°
perigee height: 702 km
apogee height: 703 km
right ascension of ascending node: 333.5767°
argument of perigee: 72.2296°
revolutions per day: 14.57106140
mean anomaly at epoch: 287.8987°
orbit number at epoch: 98051

The dashed part of the orbit path shows where the satellite is in the earth's shadow,  

DLR